Location: Ravensburg
(47.7866°N, 9.6124°E)
Time: 23:27:12
(UTC+01:00)

ARIANE 6 FM1 Upper Stage - Visible Passes

Search period start: 16 January 2026 00:00
Search period end: 26 January 2026 00:00
Orbit: 522 x 610 km, 62.0° (Epoch: 16 January)

Date Brightness Start Highest point End Pass type
(mag) Time Alt. Az. Time Alt. Az. Time Alt. Az.
16 Jan 4.5 06:15:03 15° SW 06:15:03 15° SW 06:16:25 10° SSW visible
20 Jan 4.9 18:36:39 10° SE 18:36:47 10° SE 18:36:47 10° SE visible
20 Jan 5.4 20:12:29 10° SW 20:12:52 12° SW 20:12:52 12° SW visible
21 Jan 4.3 18:35:28 10° SSE 18:37:47 17° SE 18:37:47 17° SE visible
21 Jan 5.1 20:12:43 10° SW 20:13:50 18° SW 20:13:50 18° SW visible
22 Jan 3.8 18:34:52 10° S 18:38:11 24° ESE 18:38:40 24° ESE visible
22 Jan 4.9 20:13:04 10° WSW 20:14:44 22° WSW 20:14:44 22° WSW visible
23 Jan 3.3 18:34:32 10° S 18:38:15 34° SE 18:39:29 28° E visible
23 Jan 4.8 20:13:30 10° WSW 20:15:32 24° W 20:15:32 24° W visible
24 Jan 2.8 18:34:25 10° SSW 18:38:22 50° SE 18:40:11 27° ENE visible
24 Jan 4.8 20:14:03 10° W 20:16:15 23° WNW 20:16:15 23° WNW visible
25 Jan 2.5 18:34:26 10° SW 18:38:29 73° SE 18:40:49 24° NE visible
25 Jan 4.9 20:14:40 10° W 20:16:52 20° NW 20:16:52 20° NW visible
